Regional Weather Roundup
Issued by NWS Wakefield, VA

Home | Current Version | Previous Version | Graphics & Text | Print | Product List | Glossary On
Versions: 1 2 3 4 5 6 7 8 9 10 11 12 13 14 15 16 17 18 19 20 21 22 23 24 25 26 27
000
ASUS41 KAKQ 211815
RWRAKQ

REGIONAL WEATHER ROUNDUP
NATIONAL WEATHER SERVICE WAKEFIELD VA
100 PM EST SAT JAN 21 2017

Note: "fair" indicates few or no clouds below 12,000 feet with no
significant weather and/or obstructions to visibility. * = Denotes
station may not report precipitation (e.g., rain,snow,etc.),
thunder or fog.

VAZ042-051-052>054-056-211900-
NORTHERN VIRGINIA

CITY           SKY/WX    TMP DP  RH WIND       PRES   REMARKS
WASH NATIONAL  CLOUDY    49  48  97 S6        29.86F
DULLES         CLOUDY    48  46  93 S5        29.84F FOG
FORT BELVOIR   CLOUDY    49  47  95 S5        29.85F
QUANTICO       FOG       48  48 100 S6        29.85F VSB 1/4
FREDERICKSBRG* CLOUDY    51  51 100 CALM      29.83F
STAFFORD*      CLOUDY    49  49 100 S3        29.88F
WARRENTON      CLOUDY    50  47  89 CALM      29.84F FOG
CULPEPER*      CLOUDY    49  49  97 CALM      29.85F
MANASSAS*      CLOUDY   N/A N/A N/A CALM      29.85F FOG
LEESBURG*      CLOUDY    50  50 100 SE6       29.85F FOG
WINCHESTER     FOG       43  43 100 NE3       29.82F VSB 1
FRONT ROYAL*   CLOUDY    48  48 100 N3        29.81F
LURAY*         FAIR      52  52 100 CALM      29.80F
$$

VAZ048-049-060>072-079>083-211900-
CENTRAL AND SOUTH CENTRAL VIRGINIA

CITY           SKY/WX    TMP DP  RH WIND       PRES   REMARKS
RICHMOND       CLOUDY    49  49 100 S5        29.85F FOG
CHESTERFIELD*  CLOUDY    48  36  61 SE3       29.87F
PETERSBURG*    LGT RAIN  48  48 100 CALM      29.87F
HANOVER        CLOUDY    49  47  93 CALM      29.87F FOG
TAPPAHANNOCK*  CLOUDY    50  50 100 CALM      29.87F FOG
QUINTON*       FOG       48  48 100 CALM      29.86F VSB 1/2
CHARLOTTSVILLE CLOUDY    50  48  93 CALM      29.84F FOG
GORDONSVILLE*  CLOUDY    49  49  99 S3        29.84S
ORANGE*          N/A     50  50 100 CALM      29.86F
LOUISA*        CLOUDY    54  54 100 CALM      29.84S
BUMPASS*       CLOUDY    50  50 100 SW8       29.84F
FARMVILLE*     CLOUDY    55  54  99 SE5       29.83F
CREWE*         CLOUDY    51  51 100 CALM      29.85F
FORT PICKETT*  CLOUDY   N/A N/A N/A CALM      29.86F
CHASE CITY*    CLOUDY    52  51  95 CALM      29.85F
CLARKSVILLE*   CLOUDY    52  52 100 CALM      29.85F
SOUTH HILL*    CLOUDY    51  51 100 CALM      29.90F
LAWRENCEVILLE* CLOUDY    51  50  97 CALM      29.85F
EMPORIA*       CLOUDY    50  50 100 SE3       29.88F FOG
$$

VAZ088>098-211900-
SOUTHEAST VIRGINIA

CITY           SKY/WX    TMP DP  RH WIND       PRES   REMARKS
NORFOLK        CLOUDY    51  50  96 SE6       29.86F
VIRGINIA BEACH CLOUDY    51  48  89 S6        29.86F
NORFOLK NAVAL  CLOUDY    53  50  89 VRB5      29.89F
WEST POINT*    CLOUDY    49  49 100 CALM      29.88F
SALUDA*        CLOUDY    48  48 100 CALM      29.86F
NEWPORT NEWS   CLOUDY    51  49  92 SW3       29.87F
LANGLEY AFB    CLOUDY    50  50 100 S5        29.86F
FORT EUSTIS    CLOUDY    51  47  89 S5        29.84F
WILLIAMSBURG*  CLOUDY    50  50 100 SE3       29.87F
HR EXEC AP*    CLOUDY    52  48  87 CALM      29.86F
FRANKLIN*      CLOUDY    51  49  92 CALM      29.88S
US460-WAKEFLD  CLOUDY    51  50  96 VRB3      29.86F
$$

VAZ020-022-025-037-045-211900-
WEST CENTRAL AND SOUTHWEST VIRGINIA

CITY           SKY/WX    TMP DP  RH WIND       PRES   REMARKS
STAUNTON*      MOSUNNY   59  51  73 CALM      29.81F
WAYNESBORO*    FAIR      62  49  63 SW6       29.80F
HOT SPRINGS VA CLOUDY    55  45  67 W10       29.84S
LYNCHBURG      CLOUDY    50  50 100 S6        29.85F FOG
DANVILLE       CLOUDY    54  54 100 CALM      29.85F
SOUTH BOSTON*  CLOUDY    54  52  95 CALM      29.84F
MARTINSVILLE   CLOUDY    52  50  94 CALM      29.87F FOG
ROANOKE        CLOUDY    50  47  89 CALM      29.86F
BLACKSBURG     CLOUDY    50  50  99 CALM      29.87F
DUBLIN*        CLOUDY    49  49 100 CALM      29.85F
MARION*        MOSUNNY   53  53  97 E3        29.84F
HILLSVILLE*    CLOUDY    55  52  88 CALM      29.83F
RICHLANDS*     FAIR      58  49  72 CALM      29.82F
WISE*          CLOUDY    57  46  67 S5        29.82F
ABINGDON*      CLOUDY    59  52  76 E3        29.81F
$$

MDZ021>025-VAZ099-100-211900-
SOUTHERN MARYLAND AND THE DELMARVA PENINSULA

CITY           SKY/WX    TMP DP  RH WIND       PRES   REMARKS
PATUXENT RIVER CLOUDY    45  45 100 SE7       29.86F FOG
BAY BRIDGE APT CLOUDY    46  46 100 S8        29.86F FOG
LEONARDTOWN    CLOUDY    46  46 100 CALM      29.87F
DOVER          CLOUDY    46  46 100 SW3       29.86F
GEORGETOWN     CLOUDY    48  47  96 W6        29.88F
EASTON         CLOUDY    48  46  93 SW7       29.92F FOG
CAMBRIDGE      CLOUDY    45  45 100 S3        29.87F
SALISBURY      CLOUDY    48  48 100 VRB3      29.87F FOG
OCEAN CITY     CLOUDY    46  46 100 S8        29.89F FOG
WALLOPS ISLAND CLOUDY    47  47 100 S6        29.88F FOG
ACCOMACK*      CLOUDY    48  47  97 CALM      29.87F
$$

NCZ012>017-030>032-211900-
NORTH CENTRAL AND EASTERN NORTH CAROLINA

CITY           SKY/WX    TMP DP  RH WIND       PRES   REMARKS
ROANOKE RAPIDS CLOUDY    52  52 100 CALM      29.86F FOG
RALEIGH        FOG       53  52  96 SE6       29.86F VSB 1/8
ELIZABETH CITY CLOUDY    50  49  96 E7        29.88F
AHOSKIE*         N/A     51  49  96 CALM      29.87F
EDENTON*       CLOUDY    53  52  96 CALM      29.88F
CURRITUCK*     CLOUDY    52  52 100 CALM      29.88F
KILL DEVIL HLS NOT AVBL
MANTEO         CLOUDY    52  52 100 SE3       29.87F FOG
CAPE HATTERAS  CLOUDY    60  56  86 CALM      29.87F
TARBORO*       NOT AVBL
GOLDSBORO      CLOUDY    55  55 100 CALM      29.83F FOG
WASHINGTON     CLOUDY    54  51  87 SE3         N/A
GREENVILLE     CLOUDY    55  54  94 CALM      29.88F
NEW BERN       CLOUDY    52  50  93 SE6       29.88F
WILMINGTON     CLOUDY    65  61  87 SE5       29.85F
$$

VAZ048-211900-
ELSEWHERE

CITY           SKY/WX    TMP DP  RH WIND       PRES   REMARKS
HARRISBURG PA  FOG       44  44 100 CALM      29.84F VSB 1
BALTIMORE      CLOUDY    48  48 100 S3        29.85F FOG
ANNAPOLIS      FOG       45  44  97 SE6       29.86F VSB 1/4
ANDREWS AFB    CLOUDY    49  48  98 CALM      29.84F
PHILADELPHIA   CLOUDY    46  44  93 W7        29.87F FOG
HENDERSON NC     N/A     51  50  98 CALM      29.85F FOG
GREENSBORO     CLOUDY    54  54 100 CALM      29.83F FOG
ROCKY MOUNT    FOG       52  52 100 S3        29.87F VSB 1/4
$$

VAZ100-211900-
MARINE

STATION/POSITION TIME  TEMP    WIND        PRES    WAVE   SWELL
                       AIR SEA DIR/SP/G            HT/PER HT/PER
                 (UTC) (F)     (DEG/KT/KT) (MB)    (FT/S) (FT/S)
CAPE MAY NJ      1748   44 41  250/  3/  3 1011.5F
LEWES DE         1748   48 42  240/  3/  5 1011.6F
OCEAN-CITY-INLET 1748   45 43  220/  8/ 10 1012.4F
WACHAPREAGUE VA  1748   47 47  180/  4/  5 1011.5F
THOMAS POINT MD  1800   43 40  150/ 10/ 10   N/A
GOOSES REEF MD   1750   42     170/  6/  6 1012.2F
COVE POINT MD    1748   42     170/  8/  9 1012.0F
SOLOMONS ISLAND  1748   45 41  120/  3/  3   N/A
BISHOPS HEAD MD  1748   45 44  190/  8/ 11 1011.9F
PINEY POINT MD   1748          110/  4/  4   N/A
POTOMAC MD       1750   43     160/  6/  6 1010.5F
CAMBRIDGE MD     1748   47 40  170/  4/  7 1010.9F
LEWISETTA VA     1748   47 45   90/  2/  3 1011.0F
RAPPAHANNOCK LGT 1748          190/  6/  6 1011.9F
STINGRAY PT      1750   44     170/  6/  8 1011.8F
YORK RVR RNG VA  1748   45     150/  5/  6 1010.8F
YORKTOWN VA      1748   46 44   70/  6/  7 1011.0F
JAMESTOWN VA     1750   47     100/  4/  6   N/A
DOMINION TERM VA 1748   48     150/  3/  4 1011.6F
KIPTOPEKE VA     1748      44  160/  6/  7   N/A
CHES BAY BRIDGE  1748   47 42   80/  5/  6 1011.2F
CAPE HENRY VA    1748   48     130/  6/  9   N/A
WILLOUBY STN VA  1748   46      40/  3/  3 1012.3F
S CRANEY ISL VA  1748   49     190/  4/  6 1011.3F
CAPE HENRY BUOY  1742      48                N/A     2/10   2/11
OFFSHORE WE BUOY 1751      49                N/A     3/11   2/11
64NM E OF VA BCH 1750   56 56  240/  4/  6 1011.3F   3/11   3/11
DUCK PIER NC     1748   49 45  140/  7/  8 1011.1F
44100 DUCK FRF   1735      48                N/A     3/12   2/12
44056 DUCK FRF   1730      46                N/A     3/13   2/13
OREGON INLET NC  1742   52 48   70/  4/  5 1011.3F
HATTERAS NC      1748   52 54   10/  3/  4 1011.1F
DIAMOND SHLS NC  1750   66 75  130/  6/  8 1011.4F   4/11   3/11
CAPE LOOKOUT NC  1700   63     120/  7/  8 1011.8F
$$




USA.gov is the U.S. government's official web portal to all federal, state and local government web resources and services.